• In Kazakhstan
  • List of Countries
  • For 7 days
  • Water Temperature
  • Weather Map
  • News
  • Weather Widgets
  • user-avatar
    Login

    Hourly Weather Mingachevir

    Today, 22 November, Friday

    Time Temperature Precipitation Wind Pressure Humidity
    00:00 +4°C° 0.2 mm 6 mps 762 mmHg 78%
    01:00 +4°C° 0.2 mm 6 mps 762 mmHg 79%
    02:00 +4°C° 0.2 mm 6 mps 762 mmHg 80%
    03:00 +3°C° 0.2 mm 5 mps 762 mmHg 82%
    04:00 +3°C° 0.2 mm 5 mps 762 mmHg 83%
    05:00 +3°C° 0.2 mm 5 mps 762 mmHg 84%
    06:00 +3°C° 0.2 mm 5 mps 763 mmHg 85%
    07:00 +3°C° 0.4 mm 5 mps 763 mmHg 87%
    08:00 +2°C° 0.4 mm 5 mps 763 mmHg 90%
    09:00 +2°C° 0.4 mm 5 mps 763 mmHg 92%
    10:00 +2°C° 0.4 mm 5 mps 763 mmHg 90%
    11:00 +3°C° 0.4 mm 5 mps 763 mmHg 88%
    12:00 +3°C° 0.4 mm 5 mps 763 mmHg 86%
    13:00 +3°C° 0.2 mm 5 mps 763 mmHg 86%
    14:00 +4°C° 0.2 mm 4 mps 763 mmHg 86%
    15:00 +4°C° 0.2 mm 4 mps 763 mmHg 85%
    16:00 +4°C° 0.2 mm 4 mps 764 mmHg 87%
    17:00 +3°C° 0.2 mm 4 mps 764 mmHg 89%
    18:00 +3°C° 0.2 mm 4 mps 764 mmHg 90%
    19:00 +3°C° 0.4 mm 4 mps 765 mmHg 91%
    20:00 +2°C° 0.4 mm 5 mps 765 mmHg 92%
    21:00 +1°C° 0.4 mm 5 mps 765 mmHg 94%
    22:00 +1°C° 0.3 mm 5 mps 765 mmHg 94%
    23:00 +1°C° 0.3 mm 4 mps 765 mmHg 94%

    Tomorrow, 23 November, Saturday

    Time Temperature Precipitation Wind Pressure Humidity
    00:00 0°C° 0.3 mm 4 mps 765 mmHg 93%
    01:00 0°C° 0.2 mm 4 mps 765 mmHg 94%
    02:00 0°C° 0.2 mm 4 mps 765 mmHg 94%
    03:00 +1°C° 0.2 mm 3 mps 765 mmHg 94%
    04:00 +1°C° 0.1 mm 3 mps 765 mmHg 94%
    05:00 +1°C° 0.1 mm 3 mps 765 mmHg 94%
    06:00 +1°C° 0.1 mm 3 mps 765 mmHg 94%
    07:00 +1°C° 0 mm 3 mps 765 mmHg 92%
    08:00 +1°C° 0 mm 3 mps 766 mmHg 89%
    09:00 +1°C° 0 mm 3 mps 766 mmHg 87%
    10:00 +2°C° 0 mm 3 mps 765 mmHg 82%
    11:00 +3°C° 0 mm 3 mps 765 mmHg 77%
    12:00 +4°C° 0 mm 2 mps 765 mmHg 72%
    13:00 +5°C° 0 mm 2 mps 764 mmHg 70%
    14:00 +5°C° 0 mm 2 mps 764 mmHg 68%
    15:00 +6°C° 0 mm 1 mps 764 mmHg 66%
    16:00 +6°C° 0 mm 1 mps 764 mmHg 67%
    17:00 +6°C° 0 mm 1 mps 764 mmHg 68%
    18:00 +5°C° 0 mm 1 mps 764 mmHg 68%
    19:00 +5°C° 0 mm 1 mps 764 mmHg 69%
    20:00 +5°C° 0 mm 1 mps 764 mmHg 69%
    21:00 +5°C° 0 mm 1 mps 764 mmHg 69%
    22:00 +5°C° 0 mm 1 mps 764 mmHg 70%
    23:00 +5°C° 0 mm 1 mps 764 mmHg 71%

    Day after tomorrow, 24 November, Sunday

    Time Temperature Precipitation Wind Pressure Humidity
    00:00 +4°C° 0 mm 0 mps 764 mmHg 72%
    01:00 +4°C° 0 mm 0 mps 764 mmHg 73%
    02:00 +3°C° 0 mm 0 mps 764 mmHg 74%
    03:00 +3°C° 0 mm 0 mps 764 mmHg 75%
    04:00 +4°C° 0 mm 1 mps 764 mmHg 77%
    05:00 +3°C° 0 mm 1 mps 763 mmHg 78%
    06:00 +3°C° 0 mm 1 mps 763 mmHg 79%
    07:00 +4°C° 0 mm 1 mps 763 mmHg 75%
    08:00 +5°C° 0 mm 1 mps 763 mmHg 71%
    09:00 +5°C° 0 mm 1 mps 763 mmHg 67%
    10:00 +6°C° 0 mm 1 mps 763 mmHg 63%
    11:00 +7°C° 0 mm 1 mps 762 mmHg 59%
    12:00 +7°C° 0 mm 2 mps 762 mmHg 55%
    13:00 +7°C° 0 mm 2 mps 762 mmHg 54%
    14:00 +7°C° 0 mm 2 mps 761 mmHg 53%
    15:00 +7°C° 0 mm 2 mps 761 mmHg 52%
    16:00 +7°C° 0 mm 1 mps 761 mmHg 55%
    17:00 +7°C° 0 mm 1 mps 762 mmHg 58%
    18:00 +6°C° 0 mm 1 mps 762 mmHg 62%
    19:00 +5°C° 0 mm 2 mps 762 mmHg 62%
    20:00 +5°C° 0 mm 2 mps 762 mmHg 63%
    21:00 +5°C° 0 mm 2 mps 762 mmHg 63%
    22:00 +5°C° 0 mm 2 mps 762 mmHg 63%
    23:00 +4°C° 0 mm 3 mps 761 mmHg 63%

    25 November, Monday

    Time Temperature Precipitation Wind Pressure Humidity
    00:00 +4°C° 0 mm 3 mps 761 mmHg 62%
    01:00 +3°C° 0 mm 3 mps 761 mmHg 63%
    02:00 +3°C° 0 mm 3 mps 761 mmHg 63%
    03:00 +3°C° 0 mm 3 mps 760 mmHg 63%
    04:00 +3°C° 0 mm 3 mps 760 mmHg 63%
    05:00 +4°C° 0 mm 2 mps 760 mmHg 64%
    06:00 +4°C° 0 mm 2 mps 760 mmHg 64%
    07:00 +4°C° 0 mm 2 mps 760 mmHg 62%
    08:00 +5°C° 0 mm 2 mps 760 mmHg 60%
    09:00 +6°C° 0 mm 2 mps 760 mmHg 57%
    10:00 +7°C° 0 mm 2 mps 759 mmHg 55%
    11:00 +8°C° 0 mm 2 mps 759 mmHg 53%
    12:00 +8°C° 0 mm 2 mps 759 mmHg 51%
    13:00 +9°C° 0 mm 2 mps 758 mmHg 51%
    14:00 +9°C° 0 mm 2 mps 758 mmHg 51%
    15:00 +10°C° 0 mm 1 mps 758 mmHg 50%
    16:00 +9°C° 0 mm 1 mps 758 mmHg 54%
    17:00 +8°C° 0 mm 1 mps 758 mmHg 57%
    18:00 +7°C° 0 mm 1 mps 758 mmHg 61%
    19:00 +7°C° 0 mm 1 mps 758 mmHg 62%
    20:00 +7°C° 0 mm 1 mps 758 mmHg 63%
    21:00 +6°C° 0 mm 1 mps 758 mmHg 64%
    22:00 +6°C° 0 mm 1 mps 758 mmHg 65%
    23:00 +6°C° 0 mm 1 mps 758 mmHg 66%

    26 November, Tuesday

    Time Temperature Precipitation Wind Pressure Humidity
    00:00 +6°C° 0 mm 1 mps 758 mmHg 66%
    01:00 +6°C° 0 mm 1 mps 758 mmHg 67%
    02:00 +5°C° 0 mm 1 mps 757 mmHg 68%
    03:00 +5°C° 0 mm 1 mps 757 mmHg 68%
    04:00 +5°C° 0 mm 1 mps 757 mmHg 69%
    05:00 +5°C° 0 mm 1 mps 757 mmHg 70%
    06:00 +5°C° 0 mm 1 mps 757 mmHg 71%
    07:00 +6°C° 0 mm 1 mps 757 mmHg 67%
    08:00 +7°C° 0 mm 1 mps 757 mmHg 63%
    09:00 +8°C° 0 mm 1 mps 757 mmHg 59%
    10:00 +8°C° 0 mm 1 mps 757 mmHg 56%
    11:00 +9°C° 0 mm 1 mps 757 mmHg 54%
    12:00 +10°C° 0 mm 1 mps 756 mmHg 52%
    13:00 +10°C° 0 mm 1 mps 756 mmHg 52%
    14:00 +10°C° 0 mm 1 mps 756 mmHg 52%
    15:00 +10°C° 0 mm 1 mps 755 mmHg 52%
    16:00 +10°C° 0 mm 1 mps 755 mmHg 54%
    17:00 +9°C° 0 mm 1 mps 756 mmHg 57%
    18:00 +9°C° 0 mm 1 mps 756 mmHg 60%
    19:00 +8°C° 0 mm 1 mps 756 mmHg 61%
    20:00 +8°C° 0 mm 1 mps 756 mmHg 62%
    21:00 +8°C° 0 mm 1 mps 756 mmHg 63%
    22:00 +8°C° 0 mm 1 mps 755 mmHg 63%
    23:00 +7°C° 0 mm 1 mps 755 mmHg 63%

    27 November, Wednesday

    Time Temperature Precipitation Wind Pressure Humidity
    00:00 +7°C° 0 mm 1 mps 755 mmHg 64%
    01:00 +7°C° 0 mm 1 mps 755 mmHg 64%
    02:00 +6°C° 0 mm 2 mps 755 mmHg 65%
    03:00 +6°C° 0 mm 2 mps 754 mmHg 66%
    04:00 +6°C° 0 mm 2 mps 754 mmHg 66%
    05:00 +5°C° 0 mm 2 mps 754 mmHg 66%
    06:00 +5°C° 0 mm 2 mps 754 mmHg 67%
    07:00 +6°C° 0 mm 2 mps 754 mmHg 64%
    08:00 +7°C° 0 mm 2 mps 754 mmHg 61%
    09:00 +8°C° 0 mm 2 mps 754 mmHg 58%
    10:00 +8°C° 0 mm 2 mps 753 mmHg 56%
    11:00 +9°C° 0 mm 2 mps 753 mmHg 54%
    12:00 +10°C° 0 mm 2 mps 752 mmHg 53%
    13:00 +10°C° 0 mm 2 mps 752 mmHg 53%
    14:00 +10°C° 0 mm 3 mps 752 mmHg 53%
    15:00 +11°C° 0 mm 3 mps 752 mmHg 52%
    16:00 +10°C° 0 mm 2 mps 752 mmHg 55%
    17:00 +9°C° 0 mm 2 mps 753 mmHg 58%
    18:00 +8°C° 0 mm 2 mps 753 mmHg 61%
    19:00 +8°C° 0 mm 2 mps 753 mmHg 62%
    20:00 +9°C° 0 mm 1 mps 753 mmHg 62%
    21:00 +9°C° 0 mm 1 mps 753 mmHg 63%
    22:00 +8°C° 0 mm 1 mps 753 mmHg 64%
    23:00 +8°C° 0 mm 1 mps 753 mmHg 64%
    Show more